Location: Newark
(7.5381°N, 8.4972°W)
Time: 21:01:20
(UTC+00:00)

OTV 5 (USA 277) - Visible Passes

Search period start: 17 October 2019 00:00
Search period end: 27 October 2019 00:00
Orbit: 310 x 324 km, 54.5° (Epoch: 08 October)

Date Brightness Start Highest point End Pass type
(mag) Time Alt. Az. Time Alt. Az. Time Alt. Az.
21 Oct ? 19:55:20 10° SW 19:55:45 13° SW 19:55:45 13° SW visible
22 Oct ? 18:37:14 10° SSE 18:38:23 12° ESE 18:39:32 10° E visible
23 Oct ? 05:53:16 10° N 05:55:14 18° NE 05:57:13 10° ESE visible
23 Oct ? 18:50:11 10° SSW 18:52:50 60° ESE 18:55:13 12° NE visible
24 Oct ? 19:05:09 10° WSW 19:07:20 22° NW 19:09:31 10° N visible
26 Oct ? 05:04:23 38° NE 05:04:36 39° NE 05:07:10 10° SE visible
